TimeEDT,TemperatureF,Dew PointF,Humidity,Sea Level PressureIn,VisibilityMPH,Wind Direction,Wind SpeedMPH,Gust SpeedMPH,PrecipitationIn,Events,Conditions,WindDirDegrees,DateUTC
12:29 AM,66.2,64.4,94,30.12,1.8,Calm,Calm,-,0.01,,Scattered Clouds,0,2012-10-04 04:29:00
12:41 AM,64.4,64.4,100,30.12,0.5,Calm,Calm,-,0.01,Fog,Fog,0,2012-10-04 04:41:00
12:54 AM,66.0,64.9,96,30.14,0.5,Calm,Calm,-,0.01,Fog,Fog,0,2012-10-04 04:54:00
1:02 AM,66.2,64.4,94,30.13,0.8,Calm,Calm,-,N/A,,Mist,0,2012-10-04 05:02:00
1:13 AM,64.4,64.4,100,30.13,0.5,Calm,Calm,-,N/A,Fog,Fog,0,2012-10-04 05:13:00
1:25 AM,66.2,64.4,94,30.13,1.0,NNW,3.5,-,N/A,,Mist,330,2012-10-04 05:25:00
1:35 AM,64.4,64.4,100,30.13,2.0,Calm,Calm,-,N/A,,Mostly Cloudy,0,2012-10-04 05:35:00
1:46 AM,64.4,64.4,100,30.14,2.5,Calm,Calm,-,N/A,,Scattered Clouds,0,2012-10-04 05:46:00
1:54 AM,66.0,64.9,96,30.15,3.0,Calm,Calm,-,0.00,Rain,Light Rain,0,2012-10-04 05:54:00
2:05 AM,64.4,64.4,100,30.13,2.0,Calm,Calm,-,0.00,,Mostly Cloudy,0,2012-10-04 06:05:00
2:08 AM,64.4,64.4,100,30.13,1.8,Calm,Calm,-,0.00,,Mostly Cloudy,0,2012-10-04 06:08:00
2:21 AM,66.2,64.4,94,30.13,0.5,Calm,Calm,-,0.00,Fog,Fog,0,2012-10-04 06:21:00
2:36 AM,66.2,64.4,94,30.13,0.8,Calm,Calm,-,0.00,,Mist,0,2012-10-04 06:36:00
2:54 AM,64.9,64.9,100,30.13,0.5,Calm,Calm,-,0.00,Fog,Fog,0,2012-10-04 06:54:00
3:25 AM,66.2,64.4,94,30.11,0.5,Calm,Calm,-,N/A,Fog,Fog,0,2012-10-04 07:25:00
3:47 AM,64.4,64.4,100,30.12,0.5,Calm,Calm,-,N/A,Fog,Fog,0,2012-10-04 07:47:00
3:54 AM,66.0,64.9,96,30.13,0.5,Calm,Calm,-,N/A,Fog,Fog,0,2012-10-04 07:54:00
4:54 AM,64.9,64.9,100,30.13,0.5,Calm,Calm,-,N/A,Fog,Fog,0,2012-10-04 08:54:00
5:07 AM,64.4,64.4,100,30.13,0.5,Calm,Calm,-,N/A,Fog,Fog,0,2012-10-04 09:07:00
5:15 AM,64.4,64.4,100,30.13,1.0,Calm,Calm,-,N/A,,Overcast,0,2012-10-04 09:15:00
5:24 AM,64.4,64.4,100,30.13,1.8,Calm,Calm,-,N/A,,Overcast,0,2012-10-04 09:24:00
5:45 AM,64.4,64.4,100,30.13,2.0,Calm,Calm,-,0.00,Rain,Light Rain,0,2012-10-04 09:45:00
5:54 AM,64.9,64.9,100,30.14,2.5,Calm,Calm,-,0.00,,Overcast,0,2012-10-04 09:54:00
6:04 AM,64.4,64.4,100,30.13,1.2,Calm,Calm,-,N/A,,Overcast,0,2012-10-04 10:04:00
6:13 AM,64.4,64.4,100,30.12,0.8,Calm,Calm,-,N/A,,Overcast,0,2012-10-04 10:13:00
6:30 AM,64.4,64.4,100,30.13,2.0,Calm,Calm,-,N/A,,Overcast,0,2012-10-04 10:30:00
6:38 AM,66.2,64.4,94,30.13,4.0,Calm,Calm,-,N/A,,Overcast,0,2012-10-04 10:38:00
6:54 AM,64.9,64.9,100,30.14,1.5,Calm,Calm,-,0.00,Rain,Light Rain,0,2012-10-04 10:54:00
7:02 AM,64.4,64.4,100,30.13,1.5,Calm,Calm,-,0.00,Rain,Light Rain,0,2012-10-04 11:02:00
7:11 AM,64.4,64.4,100,30.13,1.5,Calm,Calm,-,0.01,Rain,Light Rain,0,2012-10-04 11:11:00
7:34 AM,64.4,64.4,100,30.13,1.5,Calm,Calm,-,0.01,Rain,Light Rain,0,2012-10-04 11:34:00
7:49 AM,64.4,64.4,100,30.13,1.5,Calm,Calm,-,0.01,Rain,Light Rain,0,2012-10-04 11:49:00
7:54 AM,64.9,64.9,100,30.14,1.2,East,3.5,-,0.01,Rain,Light Rain,80,2012-10-04 11:54:00
7:56 AM,64.4,64.4,100,30.12,0.8,East,3.5,-,0.00,Rain,Light Rain,90,2012-10-04 11:56:00
8:04 AM,64.4,64.4,100,30.12,0.5,East,3.5,-,0.00,Fog-Rain,Light Rain,90,2012-10-04 12:04:00
8:11 AM,66.2,64.4,94,30.13,1.0,Calm,Calm,-,0.00,Rain,Light Rain,0,2012-10-04 12:11:00
8:54 AM,66.9,66.0,97,30.12,1.5,Calm,Calm,-,0.01,,Overcast,0,2012-10-04 12:54:00
9:12 AM,66.2,66.2,100,30.14,0.8,WSW,9.2,-,0.00,,Overcast,250,2012-10-04 13:12:00
9:54 AM,68.0,66.9,96,30.13,0.8,Calm,Calm,-,0.00,,Overcast,0,2012-10-04 13:54:00
10:10 AM,69.8,68.0,94,30.12,1.0,Calm,Calm,-,N/A,,Overcast,0,2012-10-04 14:10:00
10:54 AM,70.0,68.0,93,30.12,1.0,Calm,Calm,-,N/A,,Overcast,0,2012-10-04 14:54:00
11:54 AM,72.0,69.1,91,30.12,4.0,Calm,Calm,-,0.00,,Scattered Clouds,0,2012-10-04 15:54:00
12:06 PM,73.4,69.8,88,30.11,2.5,NNW,4.6,-,N/A,,Mostly Cloudy,340,2012-10-04 16:06:00
12:52 PM,73.4,69.8,88,30.11,3.0,Calm,Calm,-,N/A,,Haze,0,2012-10-04 16:52:00
12:54 PM,73.9,69.1,85,30.12,3.0,West,3.5,-,N/A,,Haze,270,2012-10-04 16:54:00
1:17 PM,75.2,69.8,83,30.09,3.0,Calm,Calm,-,N/A,,Scattered Clouds,0,2012-10-04 17:17:00
1:33 PM,73.4,69.8,88,30.09,3.0,West,4.6,-,N/A,,Mostly Cloudy,270,2012-10-04 17:33:00
1:54 PM,73.0,69.1,87,30.10,3.0,WNW,9.2,-,N/A,,Mostly Cloudy,290,2012-10-04 17:54:00
2:17 PM,73.4,68.0,83,30.08,3.0,WNW,6.9,-,N/A,,Scattered Clouds,300,2012-10-04 18:17:00
2:54 PM,73.9,66.9,79,30.09,3.0,WNW,3.5,-,N/A,,Clear,290,2012-10-04 18:54:00
3:54 PM,73.9,66.0,76,30.09,10.0,West,6.9,-,N/A,,Scattered Clouds,270,2012-10-04 19:54:00
4:54 PM,70.0,64.0,81,30.09,10.0,NNW,5.8,-,N/A,,Mostly Cloudy,330,2012-10-04 20:54:00
5:54 PM,73.0,63.0,71,30.09,10.0,NW,6.9,-,N/A,,Clear,310,2012-10-04 21:54:00
6:54 PM,66.9,63.0,87,30.09,10.0,Calm,Calm,-,N/A,,Clear,0,2012-10-04 22:54:00
7:54 PM,64.9,63.0,93,30.09,9.0,Calm,Calm,-,N/A,,Clear,0,2012-10-04 23:54:00
8:54 PM,64.0,62.1,93,30.09,8.0,Calm,Calm,-,N/A,,Clear,0,2012-10-05 00:54:00
9:54 PM,64.0,62.1,93,30.10,6.0,Calm,Calm,-,N/A,,Clear,0,2012-10-05 01:54:00
10:02 PM,62.6,62.6,100,30.09,1.5,Calm,Calm,-,N/A,,Clear,0,2012-10-05 02:02:00
10:09 PM,60.8,60.8,100,30.09,0.5,Calm,Calm,-,N/A,Fog,Fog,0,2012-10-05 02:09:00
10:18 PM,60.8,60.8,100,30.09,0.5,Calm,Calm,-,N/A,Fog,Fog,0,2012-10-05 02:18:00
10:54 PM,61.0,60.1,97,30.11,1.0,Calm,Calm,-,0.01,,Mist,0,2012-10-05 02:54:00
11:08 PM,60.8,59.0,94,30.09,1.8,Calm,Calm,-,N/A,,Clear,0,2012-10-05 03:08:00
11:24 PM,59.0,57.2,94,30.09,0.8,Calm,Calm,-,N/A,,Clear,0,2012-10-05 03:24:00
11:34 PM,60.8,57.2,88,30.09,1.8,Calm,Calm,-,N/A,,Clear,0,2012-10-05 03:34:00
11:38 PM,60.8,59.0,94,30.09,3.0,Calm,Calm,-,N/A,,Clear,0,2012-10-05 03:38:00
11:54 PM,59.0,57.9,96,30.10,8.0,Calm,Calm,-,N/A,,Clear,0,2012-10-05 03:54:00